User: anonymous   Login
Location: Camp Creek
(33.9000°N, 111.8167°W)
Time: 01:36:50
(UTC-07:00)
Language:

Cosmos 2322 Rocket - Orbit

View from above orbital plane
View from above orbital plane
View from above satellite
View from above satellite

Ground track
Ground track

The orbit data is extracted from the following two-line orbital elements,

1 23705U 95058B   17144.91181476 +.00000174 +00000-0 +11436-3 0  9998
2 23705 071.0230 077.8673 0013630 325.4449 034.5787 14.15101807113595
Epoch (UTC): 24 May 2017 21:53:00
Eccentricity: 0.0013630
inclination: 71.0230°
perigee height: 832 km
apogee height: 852 km
right ascension of ascending node: 77.8673°
argument of perigee: 325.4449°
revolutions per day: 14.15101807
mean anomaly at epoch: 34.5787°
orbit number at epoch: 11359

The dashed part of the orbit path shows where the satellite is in the earth's shadow,  

DLR